TimeCDT,TemperatureF,Dew PointF,Humidity,Sea Level PressureIn,VisibilityMPH,Wind Direction,Wind SpeedMPH,Gust SpeedMPH,PrecipitationIn,Events,Conditions,WindDirDegrees,DateUTC
12:13 AM,60.8,55.4,82,29.88,10.0,North,6.9,-,N/A,,Mostly Cloudy,360,2013-08-07 05:13:00
12:31 AM,60.8,55.4,82,29.88,10.0,North,9.2,-,N/A,,Scattered Clouds,360,2013-08-07 05:31:00
12:52 AM,59.0,55.4,88,29.89,10.0,NNW,5.8,-,N/A,,Clear,330,2013-08-07 05:52:00
1:13 AM,57.2,55.4,94,29.89,10.0,NNW,6.9,-,N/A,,Clear,340,2013-08-07 06:13:00
1:33 AM,57.2,55.4,94,29.90,10.0,NNW,4.6,-,N/A,,Clear,340,2013-08-07 06:33:00
1:53 AM,57.2,55.4,94,29.91,10.0,NW,3.5,-,N/A,,Clear,320,2013-08-07 06:53:00
2:13 AM,55.4,55.4,100,29.91,10.0,Calm,Calm,-,N/A,,Clear,0,2013-08-07 07:13:00
2:33 AM,55.4,55.4,100,29.92,10.0,NW,4.6,-,N/A,,Clear,310,2013-08-07 07:33:00
2:52 AM,55.4,55.4,100,29.92,10.0,NNW,3.5,-,N/A,,Clear,330,2013-08-07 07:52:00
3:13 AM,55.4,53.6,94,29.93,10.0,NW,3.5,-,N/A,,Clear,310,2013-08-07 08:13:00
3:33 AM,55.4,53.6,94,29.93,10.0,NW,4.6,-,N/A,,Clear,310,2013-08-07 08:33:00
3:52 AM,55.4,53.6,94,29.93,10.0,NW,4.6,-,N/A,,Clear,320,2013-08-07 08:52:00
4:13 AM,55.4,53.6,94,29.93,10.0,NW,4.6,-,N/A,,Clear,320,2013-08-07 09:13:00
4:33 AM,53.6,53.6,100,29.94,10.0,NW,4.6,-,N/A,,Clear,310,2013-08-07 09:33:00
4:53 AM,53.6,53.6,100,29.95,10.0,NW,3.5,-,N/A,,Clear,310,2013-08-07 09:53:00
5:13 AM,53.6,53.6,100,29.94,10.0,NW,3.5,-,N/A,,Clear,320,2013-08-07 10:13:00
5:32 AM,53.6,53.6,100,29.95,10.0,NW,4.6,-,N/A,,Clear,310,2013-08-07 10:32:00
5:53 AM,53.6,53.6,100,29.96,10.0,Calm,Calm,-,N/A,,Clear,0,2013-08-07 10:53:00
6:13 AM,53.6,53.6,100,29.97,10.0,Calm,Calm,-,N/A,,Clear,0,2013-08-07 11:13:00
6:33 AM,53.6,53.6,100,29.97,10.0,NNW,4.6,-,N/A,,Clear,330,2013-08-07 11:33:00
6:52 AM,53.6,53.6,100,29.98,10.0,NW,3.5,-,N/A,,Scattered Clouds,320,2013-08-07 11:52:00
7:12 AM,53.6,53.6,100,29.98,10.0,NNW,5.8,-,N/A,,Scattered Clouds,330,2013-08-07 12:12:00
7:33 AM,55.4,53.6,94,29.98,10.0,NNW,5.8,-,N/A,,Clear,340,2013-08-07 12:33:00
7:52 AM,55.4,51.8,88,29.98,10.0,North,6.9,-,N/A,,Clear,350,2013-08-07 12:52:00
8:13 AM,57.2,53.6,88,29.99,10.0,NNW,4.6,-,N/A,,Clear,340,2013-08-07 13:13:00
8:33 AM,57.2,53.6,88,29.99,10.0,NNW,6.9,-,N/A,,Clear,340,2013-08-07 13:33:00
8:53 AM,59.0,53.6,82,30.00,10.0,North,10.4,-,N/A,,Clear,350,2013-08-07 13:53:00
9:13 AM,60.8,53.6,77,30.00,10.0,North,6.9,-,N/A,,Clear,350,2013-08-07 14:13:00
9:32 AM,60.8,53.6,77,30.01,10.0,North,5.8,-,N/A,,Clear,360,2013-08-07 14:32:00
9:53 AM,62.6,53.6,72,30.02,10.0,North,4.6,-,N/A,,Clear,360,2013-08-07 14:53:00
10:12 AM,62.6,53.6,72,30.02,10.0,WNW,4.6,-,N/A,,Clear,290,2013-08-07 15:12:00
10:32 AM,62.6,50.0,63,30.03,10.0,NW,9.2,-,N/A,,Clear,320,2013-08-07 15:32:00
10:53 AM,64.4,48.2,56,30.03,10.0,NW,10.4,-,N/A,,Clear,320,2013-08-07 15:53:00
11:13 AM,64.4,48.2,56,30.03,10.0,WNW,8.1,-,N/A,,Clear,300,2013-08-07 16:13:00
11:33 AM,64.4,48.2,56,30.03,10.0,NW,9.2,16.1,N/A,,Clear,320,2013-08-07 16:33:00
11:52 AM,66.2,48.2,52,30.04,10.0,NNW,8.1,-,N/A,,Clear,340,2013-08-07 16:52:00
12:13 PM,66.2,46.4,49,30.04,10.0,NNW,6.9,-,N/A,,Clear,340,2013-08-07 17:13:00
12:32 PM,66.2,48.2,52,30.04,10.0,NNW,9.2,-,N/A,,Clear,340,2013-08-07 17:32:00
12:53 PM,66.2,48.2,52,30.04,10.0,NW,4.6,-,N/A,,Clear,310,2013-08-07 17:53:00
1:12 PM,66.2,50.0,56,30.04,10.0,NW,6.9,-,N/A,,Clear,320,2013-08-07 18:12:00
1:32 PM,69.8,50.0,49,30.04,10.0,NNE,6.9,-,N/A,,Scattered Clouds,20,2013-08-07 18:32:00
1:52 PM,68.0,50.0,52,30.04,10.0,NNW,8.1,-,N/A,,Scattered Clouds,330,2013-08-07 18:52:00
2:12 PM,69.8,50.0,49,30.04,10.0,WNW,5.8,-,N/A,,Scattered Clouds,290,2013-08-07 19:12:00
2:33 PM,69.8,50.0,49,30.04,10.0,NW,6.9,-,N/A,,Scattered Clouds,320,2013-08-07 19:33:00
2:53 PM,68.0,50.0,52,30.04,10.0,West,5.8,-,N/A,,Scattered Clouds,280,2013-08-07 19:53:00
3:12 PM,69.8,50.0,49,30.04,10.0,North,5.8,-,N/A,,Mostly Cloudy,360,2013-08-07 20:12:00
3:32 PM,69.8,50.0,49,30.04,10.0,NW,5.8,-,N/A,,Mostly Cloudy,320,2013-08-07 20:32:00
3:53 PM,69.8,50.0,49,30.04,10.0,NW,5.8,-,N/A,,Scattered Clouds,320,2013-08-07 20:53:00
4:13 PM,69.8,50.0,49,30.04,10.0,NW,6.9,-,N/A,,Scattered Clouds,320,2013-08-07 21:13:00
4:32 PM,69.8,50.0,49,30.03,10.0,North,4.6,-,N/A,,Scattered Clouds,350,2013-08-07 21:32:00
4:53 PM,69.8,51.8,53,30.03,10.0,North,4.6,-,N/A,,Scattered Clouds,360,2013-08-07 21:53:00
5:12 PM,69.8,50.0,49,30.03,10.0,NNW,5.8,-,N/A,,Mostly Cloudy,340,2013-08-07 22:12:00
5:33 PM,69.8,51.8,53,30.03,10.0,North,9.2,-,N/A,,Scattered Clouds,10,2013-08-07 22:33:00
5:53 PM,69.8,50.0,49,30.03,10.0,North,4.6,-,N/A,,Scattered Clouds,350,2013-08-07 22:53:00
6:13 PM,68.0,51.8,56,30.03,10.0,ENE,3.5,-,N/A,,Scattered Clouds,60,2013-08-07 23:13:00
6:33 PM,69.8,51.8,53,30.03,10.0,East,3.5,-,N/A,,Clear,80,2013-08-07 23:33:00
6:53 PM,69.8,51.8,53,30.03,10.0,NNE,4.6,-,N/A,,Clear,30,2013-08-07 23:53:00
7:13 PM,68.0,51.8,56,30.03,10.0,Calm,Calm,-,N/A,,Clear,0,2013-08-08 00:13:00
7:32 PM,66.2,53.6,64,30.03,10.0,Calm,Calm,-,N/A,,Clear,0,2013-08-08 00:32:00
7:53 PM,66.2,53.6,64,30.03,10.0,Calm,Calm,-,N/A,,Clear,0,2013-08-08 00:53:00
8:12 PM,62.6,55.4,77,30.03,10.0,Calm,Calm,-,N/A,,Clear,0,2013-08-08 01:12:00
8:33 PM,60.8,53.6,77,30.03,10.0,Calm,Calm,-,N/A,,Clear,0,2013-08-08 01:33:00
8:53 PM,59.0,53.6,82,30.04,10.0,Calm,Calm,-,N/A,,Clear,0,2013-08-08 01:53:00
9:12 PM,57.2,55.4,94,30.04,10.0,Calm,Calm,-,N/A,,Clear,0,2013-08-08 02:12:00
9:33 PM,57.2,53.6,88,30.05,10.0,Calm,Calm,-,N/A,,Scattered Clouds,0,2013-08-08 02:33:00
9:52 PM,55.4,55.4,100,30.05,10.0,Calm,Calm,-,N/A,,Scattered Clouds,0,2013-08-08 02:52:00
10:12 PM,55.4,53.6,94,30.05,10.0,Calm,Calm,-,N/A,,Scattered Clouds,0,2013-08-08 03:12:00
10:33 PM,53.6,53.6,100,30.05,10.0,Calm,Calm,-,N/A,,Clear,0,2013-08-08 03:33:00
10:52 PM,53.6,53.6,100,30.05,10.0,Calm,Calm,-,N/A,,Clear,0,2013-08-08 03:52:00
11:13 PM,53.6,53.6,100,30.05,10.0,Calm,Calm,-,N/A,,Clear,0,2013-08-08 04:13:00
11:33 PM,53.6,51.8,94,30.05,10.0,Calm,Calm,-,N/A,,Clear,0,2013-08-08 04:33:00
11:52 PM,51.8,51.8,100,30.05,10.0,Calm,Calm,-,N/A,,Clear,0,2013-08-08 04:52:00